| time (UTC) | temp F | wind direction | speed MPH | gust MPH | rain 1hr in | rain 24hr in | rain mn in | humidity % | barometer mb |
| 20260509061523 | 40 | 30 | 0.0 | 0.0 | 0.00 | 0.00 | 0.00 | 83 | 1012.9 |
| 20260509060020 | 40 | 30 | 0.0 | 0.0 | 0.00 | 0.00 | 0.00 | 81 | 1012.9 |
| 20260509054519 | 40 | 30 | 0.0 | 1.0 | 0.00 | 0.00 | 0.00 | 80 | 1012.9 |
| 20260509053018 | 40 | 30 | 0.0 | 0.0 | 0.00 | 0.00 | 0.00 | 79 | 1013.0 |
| 20260509051515 | 41 | 29 | 0.0 | 0.0 | 0.00 | 0.00 | 0.00 | 78 | 1012.9 |
| 20260509050018 | 41 | 30 | 0.0 | 0.0 | 0.00 | 0.00 | 0.00 | 77 | 1012.9 |
| 20260509044510 | 42 | 29 | 0.0 | 0.0 | 0.00 | 0.00 | 0.00 | 76 | 1012.9 |
| 20260509043009 | 42 | 29 | 0.0 | 0.0 | 0.00 | 0.00 | 0.00 | 75 | 1012.7 |
| 20260509041505 | 43 | 29 | 0.0 | 0.0 | 0.00 | 0.00 | 0.00 | 75 | 1012.5 |
| 20260509040003 | 43 | 29 | 0.0 | 0.0 | 0.00 | 0.00 | 0.00 | 73 | 1012.4 |
| 20260509034502 | 44 | 29 | 0.0 | 0.0 | 0.00 | 0.00 | 0.00 | 73 | 1012.5 |
| 20260509033101 | 44 | 29 | 0.0 | 0.0 | 0.00 | 0.00 | 0.00 | 73 | 1012.5 |
| 20260509033001 | 44 | 29 | 0.0 | 0.0 | 0.00 | 0.00 | 0.00 | 73 | 1012.5 |
| 20260509031603 | 45 | 29 | 0.0 | 0.0 | 0.00 | 0.00 | 0.00 | 72 | 1012.4 |
| 20260509030114 | 45 | 29 | 0.0 | 0.0 | 0.00 | 0.00 | 0.00 | 72 | 1012.4 |
| 20260509024601 | 46 | 29 | 0.0 | 0.0 | 0.00 | 0.00 | 0.00 | 69 | 1012.2 |
| 20260509023058 | 46 | 29 | 0.0 | 0.0 | 0.00 | 0.00 | 0.00 | 68 | 1012.1 |
| 20260509021554 | 47 | 29 | 0.0 | 0.0 | 0.00 | 0.00 | 0.00 | 67 | 1012.0 |
| 20260509014549 | 47 | 29 | 0.0 | 2.0 | 0.00 | 0.00 | 0.00 | 66 | 1011.4 |
| 20260509013046 | 47 | 21 | 0.0 | 0.0 | 0.00 | 0.00 | 0.00 | 65 | 1011.2 |
| 20260509011545 | 48 | 21 | 0.0 | 0.0 | 0.00 | 0.00 | 0.00 | 64 | 1010.9 |
| 20260509010043 | 48 | 21 | 0.0 | 0.0 | 0.00 | 0.00 | 0.00 | 62 | 1010.6 |
| 20260509004552 | 49 | 21 | 0.0 | 0.0 | 0.00 | 0.00 | 0.00 | 60 | 1010.4 |
| 20260509003048 | 50 | 343 | 0.0 | 0.0 | 0.00 | 0.00 | 0.00 | 58 | 1010.0 |
| 20260509001535 | 51 | 343 | 0.0 | 0.0 | 0.00 | 0.00 | 0.00 | 55 | 1009.5 |
| 20260509000033 | 53 | 323 | 0.0 | 0.0 | 0.00 | 0.00 | 0.00 | 52 | 1009.3 |
| 20260508234531 | 54 | 277 | 0.0 | 1.0 | 0.00 | 0.00 | 0.00 | 49 | 1009.0 |
| 20260508233031 | 55 | 332 | 0.0 | 3.0 | 0.00 | 0.00 | 0.00 | 47 | 1008.8 |
| 20260508231531 | 56 | 271 | 0.0 | 5.0 | 0.00 | 0.00 | 0.00 | 48 | 1008.7 |
| 20260508230031 | 57 | 223 | 0.0 | 6.0 | 0.00 | 0.00 | 0.00 | 45 | 1008.6 |
| 20260508224538 | 58 | 267 | 2.0 | 8.0 | 0.00 | 0.00 | 0.00 | 43 | 1008.4 |
| 20260508223042 | 58 | 290 | 1.0 | 8.0 | 0.00 | 0.00 | 0.00 | 43 | 1008.2 |
| 20260508221530 | 58 | 190 | 0.0 | 10.0 | 0.00 | 0.00 | 0.00 | 43 | 1008.4 |
| 20260508220029 | 58 | 355 | 0.0 | 12.0 | 0.00 | 0.00 | 0.00 | 43 | 1008.3 |
| 20260508214529 | 59 | 303 | 1.0 | 11.0 | 0.00 | 0.00 | 0.00 | 42 | 1008.1 |
| 20260508213028 | 58 | 325 | 0.0 | 5.0 | 0.00 | 0.00 | 0.00 | 43 | 1008.0 |
| 20260508211528 | 60 | 277 | 3.0 | 15.0 | 0.00 | 0.00 | 0.00 | 43 | 1008.0 |
| 20260508210030 | 61 | 317 | 2.0 | 11.0 | 0.00 | 0.00 | 0.00 | 42 | 1008.0 |
| 20260508204529 | 59 | 181 | 1.0 | 13.0 | 0.00 | 0.00 | 0.00 | 41 | 1007.9 |
| 20260508203026 | 59 | 249 | 2.0 | 10.0 | 0.00 | 0.00 | 0.00 | 41 | 1007.7 |
| 20260508201527 | 59 | 306 | 4.0 | 11.0 | 0.00 | 0.00 | 0.00 | 41 | 1007.6 |
| 20260508200026 | 60 | 281 | 3.0 | 12.0 | 0.00 | 0.00 | 0.00 | 40 | 1007.4 |
| 20260508194533 | 61 | 264 | 3.0 | 13.0 | 0.00 | 0.00 | 0.00 | 38 | 1007.1 |
| 20260508193023 | 61 | 329 | 1.0 | 12.0 | 0.00 | 0.00 | 0.00 | 38 | 1007.2 |
| 20260508191532 | 60 | 347 | 3.0 | 10.0 | 0.00 | 0.00 | 0.00 | 35 | 1007.2 |
| 20260508190024 | 61 | 69 | 3.0 | 14.0 | 0.00 | 0.00 | 0.00 | 38 | 1007.2 |
| 20260508184524 | 60 | 155 | 1.0 | 15.0 | 0.00 | 0.00 | 0.00 | 36 | 1007.2 |
| 20260508183028 | 61 | 261 | 1.0 | 11.0 | 0.00 | 0.00 | 0.00 | 37 | 1007.2 |
| 20260508181520 | 61 | 355 | 4.0 | 12.0 | 0.00 | 0.00 | 0.00 | 37 | 1007.3 |
| 20260508180022 | 61 | 275 | 3.0 | 12.0 | 0.00 | 0.00 | 0.00 | 37 | 1007.1 |
| 20260508174520 | 61 | 350 | 2.0 | 14.0 | 0.00 | 0.00 | 0.00 | 39 | 1007.1 |
| 20260508173019 | 61 | 328 | 1.0 | 11.0 | 0.00 | 0.00 | 0.00 | 41 | 1007.2 |
| 20260508171518 | 60 | 340 | 3.0 | 13.0 | 0.00 | 0.00 | 0.00 | 38 | 1007.4 |
| 20260508170019 | 62 | 168 | 3.0 | 12.0 | 0.00 | 0.00 | 0.00 | 38 | 1007.3 |
| 20260508164516 | 59 | 222 | 2.0 | 10.0 | 0.00 | 0.00 | 0.00 | 40 | 1007.5 |
| 20260508163027 | 62 | 323 | 3.0 | 11.0 | 0.00 | 0.00 | 0.00 | 42 | 1007.5 |
| 20260508161513 | 61 | 9 | 1.0 | 8.0 | 0.00 | 0.00 | 0.00 | 40 | 1007.7 |
| 20260508160020 | 62 | 332 | 2.0 | 10.0 | 0.00 | 0.00 | 0.00 | 41 | 1007.9 |
| 20260508154516 | 60 | 281 | 3.0 | 10.0 | 0.00 | 0.00 | 0.00 | 37 | 1008.1 |
| 20260508153011 | 60 | 355 | 3.0 | 11.0 | 0.00 | 0.00 | 0.00 | 37 | 1008.1 |
| 20260508151512 | 60 | 296 | 1.0 | 4.0 | 0.00 | 0.00 | 0.00 | 38 | 1008.1 |
| 20260508150025 | 60 | 234 | 2.0 | 8.0 | 0.00 | 0.00 | 0.00 | 40 | 1008.1 |
| 20260508144506 | 59 | 15 | 0.0 | 10.0 | 0.00 | 0.00 | 0.00 | 41 | 1008.3 |
| 20260508143134 | 59 | 323 | 4.0 | 15.0 | 0.00 | 0.00 | 0.00 | 39 | 1008.3 |
| 20260508141602 | 58 | 79 | 1.0 | 8.0 | 0.00 | 0.00 | 0.00 | 40 | 1008.5 |
| 20260508140105 | 58 | 267 | 3.0 | 9.0 | 0.00 | 0.00 | 0.00 | 41 | 1008.6 |
| 20260508134549 | 58 | 38 | 1.0 | 9.0 | 0.00 | 0.00 | 0.00 | 44 | 1008.8 |
| 20260508133047 | 57 | 257 | 2.0 | 8.0 | 0.00 | 0.00 | 0.00 | 39 | 1008.9 |
| 20260508131541 | 56 | 302 | 1.0 | 5.0 | 0.00 | 0.00 | 0.00 | 46 | 1008.8 |
| 20260508130036 | 55 | 285 | 1.0 | 8.0 | 0.00 | 0.00 | 0.00 | 44 | 1008.9 |
| 20260508124533 | 55 | 269 | 0.0 | 6.0 | 0.00 | 0.00 | 0.00 | 46 | 1009.0 |
| 20260508123027 | 54 | 36 | 0.0 | 3.0 | 0.00 | 0.00 | 0.00 | 50 | 1008.9 |
| 20260508121523 | 53 | 40 | 0.0 | 5.0 | 0.00 | 0.00 | 0.00 | 52 | 1009.1 |
| 20260508120016 | 51 | 51 | 1.0 | 5.0 | 0.00 | 0.00 | 0.00 | 56 | 1009.2 |
| 20260508114511 | 49 | 254 | 1.0 | 7.0 | 0.00 | 0.07 | 0.00 | 59 | 1009.2 |
| 20260508113008 | 46 | 313 | 0.0 | 2.0 | 0.00 | 0.07 | 0.00 | 69 | 1009.2 |
| 20260508111504 | 43 | 287 | 0.0 | 1.0 | 0.00 | 0.07 | 0.00 | 82 | 1009.0 |
| 20260508110109 | 41 | 300 | 0.0 | 0.0 | 0.00 | 0.07 | 0.00 | 85 | 1008.9 |
| 20260508104605 | 40 | 300 | 0.0 | 0.0 | 0.00 | 0.10 | 0.00 | 85 | 1008.7 |
| 20260508103054 | 40 | 300 | 0.0 | 0.0 | 0.00 | 0.10 | 0.00 | 84 | 1008.6 |
| 20260508101553 | 39 | 300 | 0.0 | 0.0 | 0.00 | 0.10 | 0.00 | 83 | 1008.5 |
| 20260508100048 | 39 | 300 | 0.0 | 0.0 | 0.00 | 0.10 | 0.00 | 82 | 1008.4 |
| 20260508094547 | 39 | 300 | 0.0 | 0.0 | 0.00 | 0.11 | 0.00 | 81 | 1008.2 |
| 20260508093041 | 39 | 300 | 0.0 | 0.0 | 0.00 | 0.11 | 0.00 | 80 | 1008.1 |
| 20260508091539 | 39 | 300 | 0.0 | 0.0 | 0.00 | 0.11 | 0.00 | 78 | 1008.1 |
| 20260508090040 | 39 | 300 | 0.0 | 0.0 | 0.00 | 0.11 | 0.00 | 78 | 1008.1 |
| 20260508084535 | 40 | 300 | 0.0 | 0.0 | 0.00 | 0.21 | 0.00 | 77 | 1008.0 |
| 20260508083036 | 40 | 300 | 0.0 | 0.0 | 0.00 | 0.21 | 0.00 | 75 | 1007.7 |
| 20260508081529 | 41 | 300 | 0.0 | 0.0 | 0.00 | 0.21 | 0.00 | 74 | 1007.5 |
| 20260508080049 | 41 | 300 | 0.0 | 0.0 | 0.00 | 0.21 | 0.00 | 72 | 1007.2 |
| 20260508074525 | 42 | 300 | 0.0 | 0.0 | 0.00 | 0.30 | 0.00 | 71 | 1006.9 |
| 20260508073023 | 43 | 300 | 0.0 | 0.0 | 0.00 | 0.30 | 0.00 | 70 | 1006.6 |
| 20260508071518 | 44 | 300 | 0.0 | 0.0 | 0.00 | 0.30 | 0.00 | 68 | 1006.5 |
| 20260508070021 | 45 | 300 | 0.0 | 0.0 | 0.00 | 0.30 | 0.00 | 67 | 1006.5 |
| 20260508064528 | 45 | 300 | 0.0 | 0.0 | 0.00 | 0.30 | 0.00 | 64 | 1006.4 |
| 20260508063008 | 46 | 300 | 0.0 | 0.0 | 0.00 | 0.30 | 0.00 | 62 | 1006.5 |